Tracking 33198 objects as of 13-Feb-2026
HD Live streaming from Space Station
objects crossing your sky now

STARLINK-5591

Track STARLINK-5591 now!
10-day predictions
STARLINK-5591 is classified as:


NORAD ID: 55771
Int'l Code: 2023-028AG
Perigee: 577.6 km
Apogee: 580.9 km
Inclination: 70.0 °
Period: 96.1 minutes
Semi major axis: 6950 km
RCS: Unknown
Launch date: March 3, 2023
Source: United States (US)
Launch site: AIR FORCE WESTERN TEST RANGE (AFWTR)
Your satellite tracking list
Your tracking list is empty




NASA's NSSDC Master Catalog

Two Line Element Set (TLE):
1 55771U 23028AG  26044.05577537  .00000937  00000-0  86367-4 0  9998
2 55771  69.9991 286.5479 0002402 257.4874 102.6016 14.98320663162845
Source of the keplerian elements: AFSPC